AEOLUS (43600 NORAD) Tracking and Keplerian Element Data

This shows tracking and keplerian element data for the satellite.

Feedback or suggestion? Click here.




ElementValue
Catalog43600
NameAEOLUS
Epoch Orbit3845
Epoch Day112.46744081
Epoch Year2019
RAAN120.1371
Inclination96.7274
Eccentricity0.00049
Argument of Perigee131.7161
Mean Anonmoly228.6994
Mean Motion15.86769926
Decay Rate-1.37E-06
L11 43600U 18066A 19112.46744081 -.00000137 00000-0 00000+0 0 9993
L22 43600 96.7274 120.1371 0004900 131.7161 228.6994 15.86769926 38457

Live tracking and technical data element details for AEOLUS (NORAD 43600). AEOLUS can be tracked NOW for your location showing map with azimuth and elevation plus other details from your city location.

Track the satellite on the map from your city or location and see movement details for azimuth, elevation, latitude, longitude, range, height, and movement on the map or in text.







IsCatalogInMostPopularTable: catalog: 43600, numindb: 90
Update: records affected: 1



GetName: 43600 AEOLUS

Hit Count: updated at: Tue, 23 Apr 2019 19:49:55 GMT